Weather History for Woodward, OK

Change the Weather History Date:

Wednesday, January 23, 2013

  Actual Average (KGAG) Record (KGAG)
Temperature  
Mean Temperature 47 °F -  
Max Temperature 68 °F 51 °F 73 °F (1967)
Min Temperature 26 °F 21 °F -6 °F (1966)
Degree Days  
Heating Degree Days 18    
Moisture  
Dew Point 29 °F    
Average Humidity 61    
Maximum Humidity 86    
Minimum Humidity 26    
Precipitation  
Precipitation 0.00 in - - ()
Sea Level Pressure  
Sea Level Pressure 30.18 in    
Wind  
Wind Speed 5 mph (SE)    
Max Wind Speed 14 mph    
Max Gust Speed -    
Visibility 10 miles    
Events      
Averages and records for this station are not official NWS values.
T = Trace of Precipitation, MM = Missing Value Source: NWS Daily Summary

Daily Weather History Graph

Daily Weather History Graph

Search for Another Location

Airport:

Trip Planner

Search our weather history database for the weather conditions in past years. The results will help you decide how hot, cold, wet, or windy it might be!

Date:

Astronomy

Jan. 23, 2013 Rise Set
Actual Time 7:45 AM CST 5:54 PM CST
Civil Twilight 7:17 AM CST 6:22 PM CST
Nautical Twilight 6:46 AM CST 6:53 PM CST
Astronomical Twilight 6:15 AM CST 7:24 PM CST
Moon 3:08 PM CST (1/23) 4:56 AM CST (1/23)
Length of Visible Light 11h 04m
Length of Day
10h 09m
Waxing Gibbous, 89% of the Moon is Illuminated
Jan 23
Waxing Gibbous
Jan 26
Full
Feb 3
Last Quarter
Feb 10
New
Feb 17
First Quarter

Hourly Weather History & Observations

Time (CST) Temp. Windchill Dew Point Humidity Pressure Visibility Wind Dir Wind Speed Gust Speed Precip Events Conditions
12:15 AM 33.8 °F 28.6 °F 24.8 °F 70% 30.23 in 10.0 mi East 5.8 mph - N/A   Clear
12:35 AM 33.8 °F 27.7 °F 24.8 °F 70% 30.23 in 10.0 mi East 6.9 mph - N/A   Clear
12:55 AM 33.8 °F 29.6 °F 24.8 °F 70% 30.22 in 10.0 mi East 4.6 mph - N/A   Clear
1:15 AM 33.8 °F 29.6 °F 23.0 °F 65% 30.21 in 10.0 mi East 4.6 mph - N/A   Clear
1:35 AM 32.0 °F - 24.8 °F 75% 30.20 in 10.0 mi Calm Calm - N/A   Clear
1:55 AM 32.0 °F - 24.8 °F 75% 30.20 in 10.0 mi Calm Calm - N/A   Clear
2:15 AM 32.0 °F - 24.8 °F 75% 30.20 in 10.0 mi Calm Calm - N/A   Clear
2:55 AM 30.2 °F 25.4 °F 24.8 °F 80% 30.20 in 10.0 mi NNW 4.6 mph - N/A   Clear
3:15 AM 28.4 °F - 23.0 °F 80% 30.20 in 10.0 mi Calm Calm - N/A   Clear
3:55 AM 30.2 °F - 23.0 °F 75% 30.19 in 10.0 mi Calm Calm - N/A   Clear
4:15 AM 30.2 °F - 24.8 °F 80% 30.18 in 10.0 mi Calm Calm - N/A   Clear
4:35 AM 28.4 °F - 23.0 °F 80% 30.19 in 10.0 mi Calm Calm - N/A   Clear
4:55 AM 28.4 °F - 23.0 °F 80% 30.19 in 10.0 mi Calm Calm - N/A   Clear
5:15 AM 28.4 °F - 23.0 °F 80% 30.19 in 10.0 mi Calm Calm - N/A   Clear
5:35 AM 26.6 °F 21.2 °F 23.0 °F 86% 30.19 in 10.0 mi SW 4.6 mph - N/A   Clear
5:55 AM 28.4 °F 21.2 °F 23.0 °F 80% 30.19 in 10.0 mi SSW 6.9 mph - N/A   Clear
6:15 AM 26.6 °F 18.2 °F 23.0 °F 86% 30.19 in 10.0 mi SW 8.1 mph - N/A   Clear
6:35 AM 26.6 °F 18.2 °F 23.0 °F 86% 30.20 in 10.0 mi WSW 8.1 mph - N/A   Clear
6:55 AM 26.6 °F 18.2 °F 23.0 °F 86% 30.20 in 10.0 mi SW 8.1 mph - N/A   Clear
7:15 AM 26.6 °F 17.5 °F 23.0 °F 86% 30.20 in 10.0 mi SW 9.2 mph - N/A   Clear
7:55 AM 26.6 °F 17.5 °F 23.0 °F 86% 30.19 in 10.0 mi SW 9.2 mph - N/A   Clear
8:15 AM 28.4 °F 23.3 °F 23.0 °F 80% 30.20 in 10.0 mi WSW 4.6 mph - N/A   Clear
8:35 AM 30.2 °F 24.3 °F 24.8 °F 80% 30.21 in 10.0 mi SW 5.8 mph - N/A   Clear
8:55 AM 32.0 °F 26.4 °F 26.6 °F 80% 30.21 in 10.0 mi SW 5.8 mph - N/A   Clear
9:35 AM 35.6 °F 31.7 °F 28.4 °F 75% 30.21 in 10.0 mi SW 4.6 mph - N/A   Clear
9:55 AM 37.4 °F 32.8 °F 28.4 °F 70% 30.21 in 10.0 mi SW 5.8 mph - N/A   Clear
10:15 AM 41.0 °F 37.1 °F 30.2 °F 65% 30.22 in 10.0 mi SW 5.8 mph - N/A   Clear
10:35 AM 44.6 °F 40.2 °F 30.2 °F 57% 30.23 in 10.0 mi WSW 8.1 mph - N/A   Clear
10:55 AM 44.6 °F 40.7 °F 32.0 °F 61% 30.22 in 10.0 mi WSW 6.9 mph - N/A   Clear
11:15 AM 48.2 °F - 32.0 °F 54% 30.21 in 10.0 mi WSW 5.8 mph - N/A   Clear
11:55 AM 53.6 °F - 33.8 °F 47% 30.20 in 10.0 mi SW 6.9 mph - N/A   Clear
12:15 PM 55.4 °F - 33.8 °F 44% 30.18 in 10.0 mi SW 6.9 mph - N/A   Clear
12:35 PM 55.4 °F - 33.8 °F 44% 30.17 in 10.0 mi SW 6.9 mph - N/A   Clear
12:55 PM 59.0 °F - 32.0 °F 36% 30.16 in 10.0 mi SW 10.4 mph - N/A   Clear
1:15 PM 62.6 °F - 32.0 °F 32% 30.15 in 10.0 mi WSW 9.2 mph - N/A   Clear
1:55 PM 64.4 °F - 32.0 °F 30% 30.13 in 10.0 mi SW 5.8 mph - N/A   Clear
2:15 PM 64.4 °F - 32.0 °F 30% 30.12 in 10.0 mi SW 5.8 mph - N/A   Clear
2:35 PM 66.2 °F - 32.0 °F 28% 30.11 in 10.0 mi SW 8.1 mph - N/A   Clear
2:55 PM 66.2 °F - 32.0 °F 28% 30.10 in 10.0 mi WSW 5.8 mph - N/A   Clear
3:15 PM 68.0 °F - 32.0 °F 26% 30.10 in 10.0 mi WSW 3.5 mph - N/A   Clear
3:55 PM 68.0 °F - 32.0 °F 26% 30.11 in 10.0 mi North 4.6 mph - N/A   Clear
4:15 PM 64.4 °F - 32.0 °F 30% 30.11 in 10.0 mi NE 3.5 mph - N/A   Clear
4:35 PM 64.4 °F - 32.0 °F 30% 30.11 in 10.0 mi ENE 3.5 mph - N/A   Clear
4:55 PM 62.6 °F - 32.0 °F 32% 30.12 in 10.0 mi NE 5.8 mph - N/A   Clear
5:15 PM 60.8 °F - 32.0 °F 34% 30.12 in 10.0 mi ENE 6.9 mph - N/A   Clear
5:55 PM 55.4 °F - 33.8 °F 44% 30.12 in 10.0 mi East 8.1 mph - N/A   Clear
6:15 PM 53.6 °F - 33.8 °F 47% 30.13 in 10.0 mi East 9.2 mph - N/A   Clear
6:35 PM 51.8 °F - 33.8 °F 50% 30.15 in 10.0 mi ENE 6.9 mph - N/A   Clear
6:55 PM 50.0 °F - 33.8 °F 54% 30.16 in 10.0 mi ENE 8.1 mph - N/A   Clear
7:15 PM 48.2 °F - 32.0 °F 54% 30.15 in 10.0 mi East 9.2 mph - N/A   Clear
7:35 PM 48.2 °F - 32.0 °F 54% 30.15 in 10.0 mi ENE 9.2 mph - N/A   Clear
7:55 PM 46.4 °F 41.9 °F 32.0 °F 57% 30.16 in 10.0 mi NE 9.2 mph - N/A   Clear
8:15 PM 44.6 °F 39.2 °F 32.0 °F 61% 30.17 in 10.0 mi NE 10.4 mph - N/A   Clear
8:35 PM 44.6 °F 39.7 °F 32.0 °F 61% 30.17 in 10.0 mi ENE 9.2 mph - N/A   Clear
8:55 PM 44.6 °F 40.2 °F 32.0 °F 61% 30.18 in 10.0 mi ENE 8.1 mph - N/A   Clear
9:15 PM 44.6 °F 39.7 °F 32.0 °F 61% 30.18 in 10.0 mi East 9.2 mph - N/A   Clear
9:35 PM 42.8 °F 37.0 °F 32.0 °F 66% 30.19 in 10.0 mi East 10.4 mph - N/A   Clear
9:55 PM 42.8 °F 37.0 °F 32.0 °F 66% 30.20 in 10.0 mi East 10.4 mph - N/A   Clear
10:15 PM 42.8 °F 37.0 °F 32.0 °F 66% 30.21 in 10.0 mi ENE 10.4 mph - N/A   Clear
10:35 PM 42.8 °F 37.0 °F 32.0 °F 66% 30.21 in 10.0 mi ENE 10.4 mph - N/A   Clear
10:55 PM 42.8 °F 37.0 °F 32.0 °F 66% 30.23 in 10.0 mi ENE 10.4 mph - N/A   Clear
11:15 PM 42.8 °F 37.0 °F 32.0 °F 66% 30.24 in 10.0 mi ENE 10.4 mph - N/A   Clear
11:35 PM 41.0 °F 35.8 °F 32.0 °F 70% 30.24 in 10.0 mi NE 8.1 mph - N/A   Clear
11:55 PM 37.4 °F 28.9 °F 30.2 °F 75% 30.25 in 10.0 mi ENE 13.8 mph - N/A   Clear